Location: Bezawada
(16.5136°N, 80.6297°E)
Time: 06:16:04
(UTC+00:00)

STARLINK-60 - Pass Details

Date: 27 February 2020
Orbit: 403 x 409 km, 53.0° (Epoch: 28 March)

Event Time Altitude Azimuth Distance (km) Brightness Sun altitude
Rises 14:05:33 0° 317° (NW) 2,325 7.4 -20.3°
Reaches altitude 10° 14:07:39 10° 312° (NW) 1,467 6.4 -20.8°
Maximum altitude 14:10:51 50° 235° (SW) 525 3.8 -21.6°
Enters shadow 14:11:15 47° 208° (SSW) 551 3.7 -21.7°
